Wind_Speed
40 40 40 39 40 42 44 43 41 39 39 40 40 40 39 37 35 36 37 39 40 41 40 42 44 44 44 43 42 41 40 39 40 40 40 40 41 41 42 42 42 42 42 43 44 45 44 44 45 47 49 50 51 51 52 54 54 56 57 58 58 58 58 58 58 57 56 55 54 53 52 52 55 57 58 59 59 59 60 60 59 58 57 56 54
42 41 40 39 40 42 44 44 43 42 42 43 42 41 39 36 35 37 39 40 42 42 43 43 44 43 43 42 42 41 41 41 41 41 41 42 42 43 43 42 42 42 43 44 44 44 44 45 46 48 49 50 50 52 53 54 54 56 57 57 57 57 57 57 56 55 54 53 52 52 52 53 56 58 59 59 60 61 62 61 60 58 56 54 53
42 42 40 38 39 41 42 42 42 42 42 41 40 40 39 37 36 38 40 42 42 43 43 42 41 41 41 41 42 43 43 43 42 42 43 43 44 43 43 42 42 43 43 44 44 44 45 46 48 48 49 50 51 53 53 53 55 57 57 57 57 56 55 55 55 54 53 52 52 52 53 55 57 59 59 60 62 63 63 62 59 56 54 52 50
41 41 40 39 38 38 37 37 38 39 39 39 39 39 38 37 37 40 42 42 42 42 41 40 40 40 41 42 44 45 45 44 44 44 44 44 44 43 43 43 43 43 43 44 44 45 46 47 48 48 50 51 53 53 52 53 56 57 57 57 56 55 55 56 55 54 53 53 52 53 54 56 57 58 59 61 63 64 64 62 58 54 51 49 48
41 40 40 41 40 39 38 38 39 39 38 38 38 38 37 37 37 40 41 42 42 42 41 40 40 41 43 44 46 46 46 45 45 45 44 44 44 43 43 43 43 43 44 44 45 47 47 48 48 50 52 53 53 52 52 54 56 57 57 57 56 56 57 57 57 55 54 53 53 54 55 56 56 57 59 61 64 65 64 62 58 53 49 48 47
39 39 39 39 39 38 39 40 40 38 37 36 37 37 37 36 36 38 40 41 42 42 41 41 41 43 45 46 47 47 46 46 46 45 45 44 43 43 43 43 43 43 44 46 47 47 47 48 50 52 53 53 52 52 52 54 57 58 57 58 58 57 58 59 58 57 55 54 54 54 55 55 55 57 60 62 64 66 65 63 59 53 49 46 46
37 37 37 36 35 34 36 39 38 37 36 37 38 38 37 36 36 38 40 42 43 43 42 42 43 44 46 46 47 47 47 47 46 45 44 43 42 43 43 43 44 45 46 47 47 47 48 50 52 53 53 52 51 52 53 55 58 58 58 59 59 59 60 60 59 58 56 55 54 54 53 54 55 58 60 62 64 65 65 64 61 55 48 45 44
36 36 35 34 32 32 36 37 35 34 36 38 38 39 39 38 38 40 41 43 44 44 44 43 44 45 46 47 47 47 47 46 44 43 42 42 42 43 44 45 46 47 47 47 47 47 49 51 53 53 52 51 52 54 55 56 59 60 59 61 62 62 61 61 60 59 57 55 54 53 53 54 56 58 60 61 63 64 64 63 62 57 50 45 41
36 35 34 33 33 33 35 36 36 35 36 36 36 38 39 40 41 43 44 45 45 45 45 45 46 46 46 47 47 47 46 44 43 42 42 42 43 44 45 47 48 48 48 47 47 49 52 53 54 53 51 52 54 56 56 58 60 61 61 63 64 64 63 62 61 60 57 55 54 53 54 55 57 59 60 61 62 62 62 61 61 59 54 46 40
37 36 35 34 34 34 34 35 38 39 37 37 37 38 38 40 42 43 44 46 46 46 47 47 46 46 46 46 46 45 44 43 42 41 42 43 45 46 47 48 48 48 47 47 49 52 54 54 54 52 52 54 56 57 58 59 61 62 64 65 66 65 65 64 62 61 58 56 54 54 55 56 57 59 60 61 61 61 61 61 61 61 58 52 47
37 36 35 34 34 35 35 35 37 40 40 39 39 40 40 41 42 44 45 47 48 47 47 46 45 45 46 46 46 45 44 42 41 41 43 44 46 48 48 48 48 47 47 49 52 54 55 55 54 53 53 56 57 59 60 61 62 64 66 67 67 67 66 65 63 62 59 57 55 54 55 56 57 58 59 60 60 60 60 60 59 60 61 59 54
37 36 36 36 36 36 36 36 37 38 40 41 42 43 43 43 44 45 46 46 47 46 45 44 44 45 46 45 44 43 42 41 40 42 44 46 47 48 47 47 47 48 49 51 54 56 56 56 55 54 55 57 59 60 61 62 64 65 68 69 69 68 67 66 65 63 61 57 55 54 55 56 57 57 58 59 59 59 59 59 59 58 59 59 57
39 38 38 38 38 38 38 38 37 38 39 40 41 42 43 43 44 44 44 45 46 45 45 44 44 44 43 42 40 40 39 40 41 43 45 46 47 46 46 47 48 49 51 54 55 57 57 56 56 56 57 59 60 62 63 64 65 67 69 71 71 69 68 67 66 65 62 58 56 54 55 55 56 56 57 58 58 58 59 59 58 56 57 57 57
39 39 38 38 39 39 39 38 38 38 38 39 39 40 40 41 41 42 44 45 45 44 43 41 40 39 38 38 37 38 39 40 42 43 45 46 46 46 47 48 48 50 53 55 56 57 57 56 56 57 58 60 61 63 65 66 67 69 71 73 72 71 69 68 67 66 63 59 56 54 54 55 55 56 56 57 57 58 58 58 58 56 55 55 55
39 38 38 38 38 38 38 38 38 37 38 38 37 37 38 39 40 42 43 43 42 40 38 37 36 37 37 37 37 39 40 41 41 43 44 45 46 47 49 49 50 52 54 55 57 57 57 57 58 58 60 61 62 65 67 67 68 70 72 74 74 72 70 69 68 67 63 59 56 55 54 54 55 55 55 56 56 57 57 58 58 56 54 53 53
36 36 37 37 36 36 35 34 33 33 34 35 35 35 36 37 38 40 41 39 37 36 36 37 37 37 37 38 39 39 40 40 41 43 44 46 48 49 50 51 52 54 54 55 56 57 57 59 59 60 61 62 63 66 69 68 69 71 73 74 75 73 71 70 69 68 64 59 56 55 54 53 54 54 54 54 55 56 57 57 57 57 55 53 52
31 33 35 36 35 33 32 31 30 30 31 32 33 33 34 35 37 38 38 37 36 37 37 36 35 36 37 39 39 40 41 42 43 44 45 46 48 49 51 52 54 54 55 56 56 57 59 60 61 62 63 64 65 68 70 70 71 72 74 75 76 74 71 70 70 68 64 59 56 54 53 53 54 54 54 54 54 55 56 56 57 58 57 55 53
28 31 34 34 33 33 32 31 31 31 31 31 31 31 33 35 36 38 37 37 37 37 36 35 35 36 38 40 42 43 44 44 43 43 44 45 47 50 52 54 55 55 55 56 58 59 61 62 63 64 64 65 67 69 70 71 72 73 75 76 76 74 72 71 70 69 64 59 55 54 53 53 53 54 54 54 55 55 56 57 57 58 59 57 55
26 30 31 30 31 32 31 31 32 32 32 32 31 32 34 35 35 35 36 37 36 35 35 35 37 39 41 44 45 45 44 44 44 43 44 45 47 50 53 56 57 57 56 57 59 61 63 65 65 65 65 67 68 70 72 72 73 74 76 77 76 74 72 72 71 69 64 59 55 54 53 53 53 54 54 55 55 56 57 57 58 58 59 59 57
24 28 30 30 32 34 33 32 33 33 34 35 33 33 35 36 36 38 38 37 35 35 36 38 40 43 46 46 45 44 43 43 43 43 44 47 49 51 54 57 58 58 58 58 60 63 65 66 66 66 67 68 70 72 73 74 74 75 77 77 76 75 73 72 71 69 64 58 55 53 53 53 53 54 55 55 56 56 57 57 58 58 59 59 59
28 31 32 33 35 37 35 34 33 33 36 38 38 38 40 40 40 39 37 35 36 36 39 41 43 45 46 44 42 41 42 43 44 45 47 49 51 53 55 57 58 59 59 60 63 65 67 66 66 67 68 69 71 73 74 74 75 76 78 78 77 75 74 72 71 68 63 58 54 53 53 53 54 55 55 55 55 56 57 57 58 59 60 60 60
32 34 35 36 37 36 34 33 32 33 35 37 38 39 40 40 39 37 36 37 38 39 41 43 44 44 43 41 41 42 44 46 47 48 50 51 52 54 56 58 59 59 60 63 66 67 68 67 67 67 69 71 73 74 75 75 76 78 78 78 77 76 74 72 71 68 62 57 54 52 52 53 54 55 55 55 56 56 57 57 58 59 60 61 61
29 30 32 34 35 34 33 33 33 33 34 34 35 37 38 39 39 39 39 40 40 41 42 43 43 43 42 42 44 45 47 49 49 49 51 53 55 57 59 60 60 60 62 65 67 68 67 67 67 69 71 73 74 75 75 77 78 79 79 78 77 76 74 72 70 66 61 56 53 52 51 52 53 54 55 56 56 56 57 58 58 59 60 61 62
29 28 29 31 32 32 33 34 34 34 36 37 37 38 39 40 41 42 42 42 40 41 42 43 44 45 46 47 48 49 50 51 52 52 54 57 59 60 61 61 61 62 65 67 68 67 67 68 69 71 72 73 75 75 77 78 80 80 79 78 78 76 74 72 69 65 60 56 53 51 51 52 53 54 55 56 56 57 57 58 59 59 60 61 62
33 31 30 31 31 32 34 35 34 35 39 40 40 40 40 40 42 44 44 44 44 45 47 48 49 51 54 54 54 53 53 54 55 56 58 60 61 62 62 62 63 65 67 67 67 68 69 70 71 72 73 74 75 76 78 80 81 80 80 79 78 76 74 72 68 63 58 55 53 51 51 52 53 54 55 56 56 57 58 59 59 60 61 62 62
35 34 33 33 33 33 35 36 37 38 40 41 42 44 43 43 45 48 48 48 48 49 51 52 52 53 55 57 57 56 56 57 58 60 62 62 62 62 63 64 66 67 67 67 68 70 71 72 73 74 75 76 77 78 80 81 81 80 80 79 78 76 74 71 66 62 57 54 53 52 52 52 53 54 55 55 56 57 58 59 60 61 61 62 63
36 37 37 36 36 35 36 38 40 41 42 43 44 46 47 48 49 50 49 48 49 50 52 53 53 53 54 56 56 56 56 58 61 62 62 62 63 64 66 67 67 66 67 69 71 72 72 73 74 75 77 78 79 80 81 81 81 80 80 79 78 76 74 69 65 61 57 54 52 52 52 53 53 54 55 55 56 57 58 59 60 60 61 62 62
36 37 39 40 40 39 38 38 40 42 44 45 46 48 49 49 49 49 49 49 50 52 54 55 56 56 56 56 56 56 58 60 62 63 64 64 65 67 67 67 68 68 70 72 72 72 73 74 76 77 79 80 81 81 81 80 80 80 80 79 78 76 72 68 63 60 56 54 53 52 52 53 54 54 54 55 56 57 58 59 60 60 61 62 63
37 37 39 40 41 42 42 42 43 44 46 47 48 49 50 50 50 50 51 52 53 55 56 57 57 57 56 56 58 60 62 64 65 66 67 67 67 68 69 69 70 71 71 72 73 74 75 76 78 79 81 81 81 80 80 80 80 80 80 79 77 74 71 66 62 59 56 54 53 52 53 53 53 52 53 54 56 57 58 59 60 61 61 62 63
41 40 40 42 43 44 45 46 47 48 50 51 52 53 54 54 54 54 55 56 58 59 60 59 58 56 55 55 57 61 63 65 67 68 68 68 69 69 70 71 72 71 72 73 74 75 77 78 79 80 81 80 80 80 80 80 80 80 80 78 76 73 69 64 61 58 56 54 53 53 52 51 50 51 53 55 56 57 58 59 60 61 62 63 64
44 43 43 43 45 46 48 50 51 52 53 54 56 57 58 58 58 59 60 61 62 63 63 63 63 62 61 59 58 59 61 62 64 66 67 68 69 70 71 72 72 72 73 75 76 77 78 78 79 79 79 79 79 79 80 80 80 80 79 77 75 71 67 63 60 57 56 54 53 51 50 49 51 53 54 56 58 59 60 60 61 62 63 64 64
45 46 46 45 45 46 47 50 52 54 56 58 59 59 60 60 60 60 61 62 62 62 62 63 64 64 64 63 63 62 62 63 64 66 67 68 69 70 71 71 72 73 75 77 77 77 77 77 77 77 78 78 79 79 79 80 80 79 78 76 73 69 65 62 59 57 56 54 52 50 50 51 54 55 56 58 59 60 61 62 63 64 65 65 65
45 47 47 48 47 47 47 48 49 52 55 58 60 61 62 62 62 62 61 61 61 61 60 61 62 63 64 64 65 65 66 67 68 70 71 71 72 72 73 74 75 76 77 77 77 76 75 75 75 77 77 78 79 79 79 79 79 79 77 74 71 67 64 62 60 59 58 55 52 51 52 55 56 57 59 60 61 62 63 64 65 66 67 67 67
46 47 49 50 49 49 49 49 49 50 52 54 57 58 60 61 62 62 63 63 63 62 62 62 62 63 64 64 65 66 67 68 70 71 73 73 74 75 76 77 77 77 76 76 75 75 74 75 75 76 77 78 78 79 79 79 79 78 75 72 69 66 64 62 61 61 59 57 54 54 56 58 59 60 61 62 63 64 66 66 67 68 69 69 69
49 49 50 51 52 52 52 52 53 53 53 54 55 56 57 58 59 60 61 62 63 64 64 63 63 63 64 64 65 66 67 68 70 71 72 73 74 75 75 75 75 75 75 75 75 75 75 75 75 76 76 77 78 79 79 79 78 76 73 70 68 66 65 63 62 61 60 58 57 58 60 61 62 63 63 64 65 66 68 69 69 70 70 70 70
51 50 50 52 54 55 55 55 56 56 55 55 56 56 57 57 57 58 59 60 62 63 64 64 64 64 65 65 66 66 67 68 69 71 71 72 73 73 74 74 74 75 75 75 75 75 75 75 75 76 77 77 78 78 79 78 77 74 72 69 68 67 65 63 61 60 60 61 62 63 64 65 65 65 65 66 67 69 70 71 71 71 71 71 71
52 51 51 51 53 56 57 57 57 58 57 57 57 58 58 58 58 58 58 59 60 62 64 65 65 65 65 66 66 66 66 67 69 70 71 72 73 74 74 74 75 75 76 76 76 76 76 76 76 77 77 78 78 78 78 78 75 73 71 70 69 67 64 61 59 60 61 63 65 66 67 68 67 67 68 68 69 70 72 73 73 72 72 72 72
54 54 54 53 53 55 57 58 59 59 59 59 59 59 60 60 60 60 61 61 61 62 64 65 65 64 65 65 65 66 66 67 69 70 72 73 73 74 74 75 76 77 77 77 77 77 77 77 77 78 78 78 78 78 78 76 74 73 71 71 69 66 63 60 60 62 63 65 66 68 70 71 70 70 70 71 71 72 73 74 73 73 73 73 73
56 57 57 56 55 56 57 59 60 61 61 62 62 62 62 62 62 63 63 63 63 64 65 66 67 66 66 66 67 67 68 68 69 71 73 74 74 75 75 76 77 78 79 78 78 78 78 78 78 78 79 79 79 78 77 76 74 73 72 70 67 65 62 62 63 64 65 67 69 71 73 73 73 73 73 73 74 74 74 74 74 74 74 74 74
57 57 58 58 58 58 59 60 61 62 62 63 63 63 63 63 64 64 64 64 65 66 67 69 70 69 69 68 69 70 70 70 71 72 73 75 76 76 76 77 78 79 79 79 79 79 79 79 79 80 80 80 79 78 77 75 74 73 72 70 68 66 65 65 66 67 68 69 72 74 74 75 75 75 75 74 74 74 74 74 74 75 76 76 75
59 59 59 59 60 60 60 61 61 62 63 63 63 64 64 64 65 65 66 67 67 68 69 71 72 72 72 71 71 72 72 72 72 73 74 76 77 78 77 78 78 79 80 80 81 80 80 79 79 80 81 81 80 79 77 76 75 75 74 72 71 69 68 68 68 69 70 72 74 75 75 75 76 76 75 75 74 74 75 76 77 78 78 78 78
61 61 60 60 60 60 61 62 62 63 64 64 64 64 65 66 67 68 68 69 70 70 70 71 72 73 74 74 73 73 74 74 74 74 74 75 77 78 78 78 79 79 80 81 81 81 80 79 79 80 81 81 81 80 78 78 78 77 76 74 72 70 69 69 69 70 71 73 75 75 75 75 76 77 78 78 78 78 79 79 80 81 81 81 81
62 61 61 60 60 59 60 61 63 64 65 65 65 66 66 67 68 69 70 71 72 71 71 72 72 73 74 75 75 76 76 76 75 75 74 75 76 77 78 78 79 80 81 81 81 81 80 80 80 80 80 81 81 80 80 80 80 79 77 74 71 69 69 69 70 71 72 73 74 75 75 76 77 78 79 80 82 82 82 82 82 83 83 83 83
61 61 60 59 59 59 59 60 61 63 64 65 65 66 67 68 69 70 71 72 72 72 72 73 74 75 76 76 77 77 77 77 76 75 75 75 76 77 78 79 79 80 81 81 81 82 82 82 81 81 80 80 80 80 80 81 80 78 75 72 70 69 69 70 71 72 73 73 74 75 76 77 77 78 79 81 82 83 83 83 84 84 85 85 85
60 59 59 59 59 59 59 60 61 62 64 65 66 67 68 70 71 72 73 73 73 74 74 75 76 77 78 78 78 78 77 77 76 76 76 76 77 78 78 79 80 81 81 82 82 83 83 82 82 81 80 79 79 79 79 79 77 75 71 69 68 69 70 71 73 73 73 74 75 76 77 77 78 80 81 82 82 83 84 85 86 86 87 87 87
58 58 58 59 59 60 61 61 62 64 65 67 68 69 70 72 73 74 75 75 76 76 77 77 78 78 79 78 78 77 77 77 78 78 78 79 79 79 80 80 81 82 82 83 83 83 83 82 80 79 78 77 77 76 76 74 72 70 67 66 67 69 71 72 73 73 74 75 76 77 78 79 80 81 82 82 83 84 85 87 88 89 89 89 88
59 59 60 60 61 62 63 64 65 66 68 69 70 71 73 74 75 76 77 77 77 77 78 78 78 78 78 78 78 77 78 78 79 80 80 80 80 80 80 80 81 81 81 81 81 80 78 77 75 74 73 72 71 71 70 69 68 67 65 66 68 70 72 72 73 74 75 76 77 78 79 80 81 82 83 84 85 87 88 89 90 91 91 90 90
62 63 63 64 65 65 66 67 68 69 71 72 73 74 74 75 75 76 77 77 77 76 77 77 77 77 77 76 76 76 76 76 76 77 77 76 76 76 76 76 76 75 75 74 73 71 70 69 68 67 67 67 66 67 67 66 66 65 65 67 69 71 72 72 73 75 76 77 78 80 81 82 83 84 85 87 89 90 91 92 92 92 92 91 91
65 66 67 68 68 68 69 69 70 70 71 72 72 72 72 72 73 74 74 74 74 74 73 73 73 72 72 71 71 70 70 70 69 69 68 68 68 67 67 67 67 66 65 65 64 64 64 64 64 64 64 64 65 65 65 65 65 66 67 69 70 71 72 74 75 76 78 79 80 81 83 84 85 87 88 90 91 92 93 93 93 93 92 91 91
67 67 68 68 68 68 68 68 68 68 68 69 69 69 69 69 70 70 70 69 69 68 68 67 67 66 66 65 64 63 63 63 62 61 61 60 60 59 59 59 59 59 59 60 60 60 61 61 62 63 64 64 65 65 65 65 67 68 69 71 72 73 75 76 77 78 80 81 82 84 85 87 88 90 91 92 93 94 94 93 93 93 92 91 89
66 66 66 66 66 66 66 66 66 66 66 66 66 66 66 66 65 65 65 64 64 63 63 63 62 62 61 60 59 59 58 58 57 57 56 55 55 54 54 55 55 56 57 57 58 59 60 61 62 63 64 64 65 66 66 67 68 70 71 72 74 75 77 78 79 80 82 83 85 86 88 89 91 92 93 93 94 94 94 94 93 92 91 89 87
Wind_Direction
231 235 238 238 236 236 239 244 250 254 258 262 267 269 268 267 265 263 263 265 265 267 268 269 269 269 271 274 276 279 283 288 291 294 295 296 296 297 298 299 299 299 300 301 303 304 305 306 308 310 312 314 315 316 317 317 318 320 321 322 323 322 321 320 320 319 319 320 320 321 322 322 323 323 323 323 323 323 325 325 324 321 317 313 310
230 234 238 238 236 236 239 244 250 254 259 263 266 267 266 263 261 262 264 264 264 265 267 268 269 270 272 275 278 282 286 290 293 294 295 295 296 297 297 297 297 298 299 301 303 304 305 306 308 311 312 314 316 317 317 318 320 323 324 324 324 324 323 323 322 321 321 321 322 323 324 324 324 324 324 324 325 325 326 326 325 323 320 316 313
230 233 236 237 238 240 243 247 251 255 260 263 264 264 263 261 259 262 264 264 264 265 267 269 270 272 275 278 282 286 289 292 293 294 294 294 295 296 296 295 296 297 299 301 303 303 304 306 309 311 313 316 317 317 318 320 323 325 326 327 327 327 327 327 326 326 325 324 325 325 324 324 325 326 326 326 326 327 327 328 328 326 323 319 315
229 232 235 238 241 244 247 250 254 257 259 261 261 260 260 259 258 260 261 263 265 266 267 270 273 276 279 282 285 288 291 292 293 293 293 293 293 294 294 295 296 297 299 301 302 303 305 307 309 311 315 317 318 318 320 323 326 327 328 329 329 329 330 331 330 329 328 327 327 326 325 325 326 327 327 327 327 327 328 329 330 329 326 322 318
231 233 236 239 241 244 248 252 256 259 259 258 257 256 257 257 258 260 261 264 265 267 269 273 276 279 282 285 287 289 291 292 292 291 291 291 292 293 294 294 296 297 299 300 302 303 305 307 309 313 316 317 318 321 323 325 327 329 331 332 331 331 332 333 332 331 329 328 327 326 326 326 327 328 328 328 328 329 330 331 332 332 330 327 323
232 234 236 238 241 246 252 256 258 258 257 254 254 255 257 258 260 261 262 263 264 267 270 274 278 281 283 286 288 289 290 291 290 289 289 290 291 292 293 294 296 297 299 300 302 304 306 308 311 314 316 318 321 324 325 326 329 331 333 334 334 333 333 334 333 332 330 328 327 326 327 328 329 329 329 330 330 331 332 333 334 335 334 332 330
232 234 236 238 242 248 255 259 259 257 253 250 250 253 257 260 261 261 261 262 264 268 272 276 279 281 283 285 287 288 288 288 287 287 289 290 291 291 292 293 295 297 299 301 303 305 308 311 313 315 317 320 324 326 326 326 329 332 334 336 336 334 334 334 334 333 331 329 328 328 329 330 330 330 330 331 332 332 334 335 336 337 338 337 335
234 237 239 241 242 242 245 249 253 254 253 251 249 251 254 257 259 260 262 265 268 270 273 276 278 280 282 284 285 285 285 285 286 287 289 290 290 291 291 293 295 297 299 301 303 307 310 313 315 317 320 323 326 328 327 327 330 333 335 337 337 335 334 334 335 334 332 330 330 330 331 331 330 331 332 333 334 335 337 337 337 338 340 341 338
236 238 240 242 242 240 240 242 246 248 251 254 256 255 254 255 257 260 263 266 268 270 272 274 276 279 281 281 282 283 283 284 285 287 289 289 289 290 291 293 295 297 299 302 305 309 312 314 316 319 323 327 328 329 328 327 330 333 335 337 337 335 334 334 335 335 333 331 331 331 332 331 331 332 333 334 336 337 338 338 338 339 341 342 340
236 237 238 240 241 242 241 241 242 243 247 253 256 256 256 257 257 259 263 266 268 270 271 273 275 277 278 279 279 280 282 284 286 287 287 288 288 289 291 293 295 297 300 303 307 311 313 316 319 322 325 328 329 329 328 328 330 333 335 337 336 335 335 334 335 335 333 332 332 332 332 331 332 333 334 335 337 338 340 341 341 340 341 344 346
238 238 240 241 242 243 243 242 242 243 245 248 252 255 257 258 260 262 265 267 268 269 270 272 274 275 276 277 279 281 283 286 287 287 287 287 288 289 291 293 296 298 301 304 309 313 315 317 321 324 326 327 328 329 328 329 330 333 335 336 335 335 334 334 335 335 333 332 332 331 331 331 331 332 333 335 337 340 342 343 343 342 343 345 347
237 238 239 241 242 243 244 244 244 245 246 247 250 254 257 260 261 263 265 266 267 268 271 272 273 274 275 279 282 285 287 287 287 287 287 287 288 289 291 294 297 299 302 307 312 314 316 319 322 324 325 326 327 328 329 329 331 333 334 335 335 334 334 334 334 334 333 332 331 330 330 330 331 331 333 335 338 341 343 344 344 344 344 345 346
235 236 238 240 241 243 244 245 246 247 248 249 250 253 256 259 261 262 263 264 266 269 271 272 273 276 279 282 285 286 286 287 287 287 287 287 287 289 292 295 298 301 305 310 313 314 316 319 322 323 324 325 326 328 328 329 331 332 333 334 334 333 333 333 334 334 333 331 330 330 330 330 330 331 333 335 338 341 343 345 345 345 344 344 345
236 238 240 241 243 246 247 249 250 251 252 253 253 255 256 258 260 261 262 263 266 269 271 273 275 278 280 282 283 283 284 285 286 287 287 287 287 289 293 297 300 304 308 311 313 314 316 319 321 322 323 324 325 327 328 329 330 331 331 332 333 332 332 332 333 334 333 331 330 330 329 329 329 331 333 335 338 341 342 344 346 345 344 344 345
237 238 240 242 245 248 250 251 253 255 256 255 255 255 256 258 259 260 261 264 267 269 271 274 277 278 278 278 279 280 282 284 285 286 285 286 288 293 297 300 303 305 308 310 312 313 315 318 320 321 322 324 324 326 327 328 328 328 329 331 332 331 331 331 332 333 332 330 329 329 328 328 329 330 333 335 338 340 341 343 345 345 344 344 345
239 240 241 243 244 246 250 253 255 256 257 257 256 255 256 257 259 261 263 265 267 270 274 277 278 277 276 277 279 280 282 284 285 286 287 291 295 298 300 300 302 305 307 310 311 312 314 317 319 320 322 323 323 324 326 327 326 326 327 329 330 330 330 330 331 332 331 330 329 328 327 327 328 329 332 335 337 338 339 341 343 344 345 345 345
241 240 241 242 243 244 248 253 257 260 262 261 259 258 258 260 262 262 262 265 271 277 280 280 278 276 276 277 279 281 284 286 288 291 294 296 297 298 298 298 300 304 307 309 310 311 313 316 318 319 321 321 322 323 325 325 324 324 326 328 329 329 329 329 331 332 331 329 327 327 326 326 326 328 331 334 335 336 337 339 341 343 345 346 345
239 238 240 243 245 246 247 251 257 261 261 260 260 262 263 264 263 262 266 273 280 283 282 280 277 276 276 278 280 284 287 290 293 295 296 295 295 295 295 297 300 305 307 308 309 309 312 315 317 318 319 320 321 322 323 323 322 323 325 327 328 327 328 328 330 330 329 327 326 326 325 325 325 327 330 332 333 335 336 338 341 342 344 345 345
242 239 238 238 241 244 245 248 253 255 256 258 261 262 262 261 263 269 278 283 284 282 280 278 277 276 278 280 283 287 290 292 294 294 293 293 293 294 295 297 302 305 306 306 307 307 311 314 316 317 318 319 319 320 321 321 321 322 324 326 326 326 327 327 328 329 328 326 325 324 324 324 324 326 328 330 332 334 335 338 340 341 342 344 344
249 245 239 232 234 239 241 244 249 252 253 255 258 259 258 260 267 277 284 285 282 279 278 276 276 278 281 283 286 289 290 291 291 290 290 291 292 293 295 298 301 304 304 304 304 307 310 313 314 316 317 317 317 318 318 319 319 321 323 325 325 325 325 326 327 328 326 324 323 323 323 323 323 325 327 329 331 333 335 336 338 340 341 342 343
243 242 239 233 233 238 241 243 248 252 253 253 254 257 259 262 269 276 279 279 278 277 277 276 278 280 283 285 287 288 288 287 287 289 291 293 293 293 295 298 300 302 302 302 303 307 311 312 313 315 316 315 315 316 316 317 318 320 322 323 323 323 324 325 326 326 325 323 322 322 321 321 322 324 326 328 330 331 333 335 337 338 339 340 341
239 240 240 238 237 241 244 245 248 251 253 253 253 255 258 261 266 270 271 272 274 276 275 276 277 279 281 283 283 283 284 285 288 291 293 293 294 294 296 298 300 301 300 301 304 308 310 311 312 313 313 313 314 314 314 315 317 319 321 322 322 322 323 324 325 324 323 321 320 320 320 320 321 323 325 326 328 329 331 333 335 336 337 338 339
240 243 242 240 240 243 245 246 247 247 246 249 253 254 256 259 261 263 265 268 271 273 274 275 278 279 279 279 280 281 283 286 288 291 292 293 293 295 295 297 298 298 298 301 305 308 309 309 310 310 310 311 312 312 313 314 316 318 320 320 320 321 322 323 323 322 321 319 318 318 318 318 320 321 323 325 326 327 329 332 333 335 335 336 337
234 237 239 240 242 245 246 247 246 243 242 246 252 255 257 258 259 260 262 264 266 268 270 272 275 277 277 278 280 282 284 286 288 290 291 292 293 294 294 295 296 296 298 301 305 307 307 307 308 309 310 310 310 310 311 313 315 317 318 318 319 320 321 322 322 321 319 317 317 316 316 317 319 320 322 323 324 326 328 330 331 333 333 334 335
231 231 235 239 242 245 247 246 243 240 241 245 250 253 256 258 258 258 259 262 265 266 268 270 273 275 277 279 281 282 284 286 288 288 289 290 291 292 292 292 293 295 298 301 303 304 304 305 307 308 308 308 308 309 310 313 314 316 316 317 318 319 320 321 320 319 317 315 315 315 315 316 318 319 320 321 322 324 326 328 330 331 332 332 333
234 232 234 236 237 240 243 244 241 238 240 244 248 251 254 256 258 260 262 265 268 269 270 272 274 276 277 279 280 281 283 285 285 286 286 287 287 287 288 289 292 295 298 299 300 301 303 304 306 306 306 306 306 308 310 312 313 314 315 316 317 318 319 319 319 318 316 314 313 313 314 315 317 318 319 320 321 323 325 327 328 329 330 331 331
240 236 235 236 236 236 239 241 242 242 243 246 249 252 253 255 258 262 265 267 269 270 271 273 274 275 277 278 278 280 281 282 282 283 283 283 284 285 287 290 292 295 297 297 298 300 301 303 304 303 303 304 305 307 310 311 312 313 314 315 316 317 318 318 319 318 315 313 312 312 313 314 315 317 318 319 320 322 324 325 326 328 328 329 329
245 242 239 238 237 237 237 239 242 244 245 246 248 251 253 255 258 261 263 265 267 268 269 271 272 273 275 276 276 277 278 279 280 281 282 283 284 287 289 291 292 294 295 296 297 298 300 301 301 301 301 303 305 307 309 310 311 312 313 314 315 316 317 318 318 317 315 312 311 311 312 314 315 316 318 318 319 321 322 324 325 326 327 327 328
248 246 243 241 240 239 238 238 239 242 243 244 246 248 251 254 256 259 260 261 263 265 268 270 271 272 274 274 274 274 275 277 279 281 283 284 286 288 290 291 292 292 293 293 295 296 297 298 298 298 300 303 305 307 308 309 310 311 312 313 314 315 316 317 317 316 314 311 310 311 312 314 315 317 317 318 319 320 321 323 324 325 326 326 326
252 248 245 243 242 242 242 241 241 242 243 244 245 247 250 252 254 256 257 259 262 265 267 269 270 271 272 272 272 273 275 277 279 281 283 285 287 288 289 290 290 290 291 291 292 293 294 295 297 299 301 303 304 306 307 308 309 310 311 312 313 314 316 316 316 314 312 310 310 310 312 313 315 317 317 318 319 320 321 322 323 324 324 325 325
257 253 250 247 245 244 244 244 245 245 246 246 247 249 251 254 256 258 260 262 265 266 268 269 270 270 271 272 272 274 275 278 280 282 283 285 286 287 288 288 288 288 289 289 291 292 293 295 297 299 301 302 304 305 306 307 308 309 310 312 313 314 314 315 314 313 311 310 310 310 311 312 314 316 317 318 319 320 321 322 323 323 323 324 324
260 258 256 254 252 249 247 247 248 249 250 250 251 252 253 255 258 261 263 265 267 268 269 269 270 271 272 273 274 274 275 276 278 280 282 283 284 285 285 285 285 286 287 289 291 293 294 296 298 299 301 302 303 305 306 306 307 308 310 311 312 312 313 313 312 311 310 309 309 310 310 311 313 315 316 318 318 319 320 322 322 322 323 323 323
264 261 259 258 257 256 254 253 253 253 254 254 255 255 255 257 260 262 264 265 267 268 269 270 271 273 274 275 276 276 276 277 277 278 280 281 282 282 282 283 284 286 288 290 292 293 295 296 298 299 300 302 303 304 305 306 307 308 309 310 310 311 311 311 310 309 308 308 308 308 309 310 312 313 315 317 318 319 320 321 322 322 322 322 322
267 264 262 260 259 259 259 258 258 259 259 259 259 259 259 259 260 261 263 265 267 268 269 270 271 272 273 274 275 276 277 277 278 278 279 280 280 281 282 284 285 287 289 291 292 293 295 296 297 299 300 301 302 303 304 305 306 307 308 309 309 310 310 309 308 308 308 308 307 308 309 310 311 313 315 316 317 318 319 320 320 321 321 321 321
268 266 264 261 260 260 260 260 260 261 261 262 263 263 263 263 263 264 265 266 267 269 270 270 271 271 272 274 275 276 277 278 279 279 280 281 282 283 284 285 287 288 289 290 292 293 295 296 297 299 300 300 301 302 303 304 305 307 307 308 308 308 308 308 307 307 308 309 309 310 311 311 312 313 314 316 316 317 318 319 319 319 319 320 320
269 268 266 264 261 260 260 261 261 262 262 263 264 265 266 266 267 267 268 269 270 271 272 272 273 274 275 276 277 278 279 280 281 282 283 283 284 284 285 286 287 288 289 290 291 293 295 296 297 298 299 299 300 301 302 303 305 306 306 307 307 307 307 306 307 307 308 309 310 310 310 310 311 312 313 315 316 316 317 317 317 317 318 318 319
269 270 270 268 265 262 261 262 262 263 263 264 265 266 267 268 268 269 270 271 272 272 273 274 274 275 276 277 278 279 280 281 282 282 283 284 284 285 286 287 287 288 289 290 291 293 294 295 296 297 297 298 299 300 302 303 304 304 305 305 306 306 306 306 306 306 305 306 307 308 308 308 309 311 312 314 315 315 315 315 315 316 316 317 318
268 269 270 269 267 265 263 262 262 262 263 263 264 265 266 267 269 269 270 271 272 272 273 274 275 275 276 277 278 279 280 281 282 283 283 283 284 285 286 287 287 287 288 289 290 292 293 294 295 296 296 297 298 300 301 302 303 303 304 305 305 305 305 304 303 302 302 303 304 305 306 307 308 310 311 312 313 313 313 313 313 314 315 316 317
268 268 269 269 268 266 264 263 262 262 263 263 264 265 266 267 268 269 270 270 271 271 272 273 275 276 277 278 279 280 281 281 282 283 283 283 284 284 285 286 286 286 287 288 289 291 293 294 294 295 295 296 298 299 301 301 302 302 303 303 303 303 302 300 299 299 300 300 301 302 304 306 307 309 310 311 311 310 311 311 312 313 314 315 316
268 269 269 270 270 269 266 264 263 263 264 264 265 266 267 268 268 269 270 270 271 272 273 274 275 277 278 279 279 280 281 281 282 282 282 283 283 283 284 285 285 286 287 288 289 291 292 293 294 295 295 297 298 299 300 300 300 301 301 301 300 299 298 297 296 296 297 298 299 301 303 305 306 307 308 307 307 307 309 310 311 312 314 315 316
269 270 270 270 270 269 267 265 264 264 264 265 266 267 268 269 269 269 270 271 272 273 273 274 276 277 278 278 279 280 280 281 281 281 281 281 282 283 283 284 285 286 287 288 290 291 292 293 294 295 296 297 298 299 299 299 299 299 299 299 298 297 296 295 295 295 296 298 299 301 303 304 305 306 305 305 306 308 309 311 312 313 313 314 315
270 271 270 270 269 268 266 265 265 265 265 266 267 267 268 269 270 271 272 272 273 273 274 274 275 276 277 278 279 279 280 280 280 280 280 280 281 282 283 284 285 286 287 288 290 291 292 293 293 294 295 296 297 297 297 297 297 297 298 298 297 297 296 295 295 296 298 299 300 301 302 304 305 305 306 307 308 309 310 311 312 312 313 314 314
271 271 271 270 269 267 266 265 265 266 266 267 268 268 269 270 271 271 272 273 273 274 275 275 276 276 277 278 278 279 279 279 280 279 279 279 280 281 282 283 284 285 286 287 289 289 290 291 292 292 293 293 294 294 294 295 295 296 297 297 296 295 294 294 295 296 297 298 299 300 302 303 304 305 306 307 308 309 310 310 310 311 312 312 313
272 271 271 270 268 267 267 266 267 267 268 268 269 269 270 270 271 271 272 273 273 274 275 276 276 276 277 277 277 278 278 278 278 278 278 278 278 279 280 281 282 283 284 285 286 287 288 289 289 290 290 291 291 291 292 292 293 294 295 294 294 293 293 293 293 294 296 297 298 300 301 301 302 303 304 304 306 307 308 308 309 310 311 311 311
271 271 270 269 268 268 268 268 269 269 270 270 270 271 271 272 272 273 273 274 274 275 275 276 276 276 276 276 277 277 278 278 277 277 277 277 277 278 278 279 280 281 282 283 284 285 285 286 287 287 287 288 288 288 289 290 291 292 292 292 292 292 292 292 292 293 295 296 297 298 299 300 301 301 302 303 304 305 306 307 308 309 309 310 310
270 269 269 269 269 269 269 270 270 271 271 271 272 272 273 273 273 274 274 275 275 276 276 275 275 276 276 276 277 277 277 277 277 277 277 277 277 277 278 279 279 280 280 281 281 282 283 284 284 285 285 285 286 286 287 288 290 291 291 291 290 290 290 290 291 293 294 295 296 297 298 299 299 300 301 302 304 305 306 307 307 308 308 308 308
270 270 270 270 271 271 271 271 271 272 272 272 272 272 273 273 273 274 274 275 275 275 275 275 275 275 276 276 277 277 277 277 277 277 277 277 277 277 278 278 278 278 279 279 280 281 282 283 283 284 284 284 285 286 287 288 289 289 289 288 288 288 289 291 292 293 293 294 295 296 297 298 299 300 302 303 304 305 305 306 306 306 306 306 306
272 272 272 272 272 272 272 272 272 272 272 272 272 273 273 273 274 274 274 274 274 275 275 275 276 276 277 277 277 277 277 276 276 276 276 277 277 277 277 277 277 278 279 279 280 281 281 282 282 282 283 283 284 285 286 287 288 288 288 287 288 289 290 291 292 293 293 294 295 296 297 298 300 301 303 303 304 304 304 304 304 303 303 303 303
273 273 273 273 273 273 273 273 273 273 272 273 273 273 273 273 273 274 274 274 275 275 276 276 276 276 276 276 276 276 276 276 276 276 277 277 277 277 277 278 278 278 279 279 279 279 280 280 281 282 283 283 284 285 286 286 287 287 287 288 289 290 291 291 292 293 293 294 296 297 298 300 301 301 302 302 302 301 301 301 301 300 301 301 302
274 274 274 274 274 274 274 274 273 273 273 273 273 273 273 273 273 273 273 274 274 274 275 275 275 275 275 275 275 275 275 276 276 276 276 277 277 277 277 278 278 279 279 279 279 279 280 281 282 283 284 284 285 285 285 286 286 287 288 289 290 290 291 291 292 293 294 295 296 297 298 299 299 299 299 299 299 299 299 298 299 299 300 301 301
275 275 275 275 275 274 274 274 274 273 273 272 272 272 271 271 271 272 272 272 272 272 272 273 273 273 273 274 274 274 275 275 276 276 276 276 276 277 277 278 278 279 279 280 280 281 282 283 283 283 284 284 284 285 286 286 287 288 288 289 289 290 290 291 292 293 295 296 296 297 297 297 297 297 297 297 297 297 297 297 298 299 299 300 301
Height
10700 10701 10702 10703 10705 10706 10706 10707 10708 10708 10708 10708 10709 10708 10708 10709 10710 10710 10711 10711 10711 10711 10712 10712 10711 10710 10709 10708 10708 10708 10708 10707 10705 10703 10700 10698 10696 10694 10692 10689 10687 10684 10681 10679 10676 10673 10670 10667 10664 10661 10657 10653 10649 10645 10641 10637 10632 10627 10622 10617 10611 10606 10601 10595 10590 10584 10579 10574 10570 10565 10561 10556 10551 10546 10542 10537 10532 10527 10523 10518 10514 10509 10503 10496 10491
10696 10697 10698 10700 10702 10702 10702 10703 10703 10704 10704 10704 10705 10705 10705 10706 10707 10707 10707 10707 10707 10707 10708 10708 10707 10706 10705 10704 10704 10704 10704 10702 10700 10698 10696 10694 10692 10690 10688 10685 10683 10680 10677 10675 10672 10669 10666 10663 10660 10656 10653 10649 10645 10641 10637 10633 10628 10622 10617 10612 10607 10601 10596 10590 10585 10580 10575 10570 10565 10560 10555 10551 10546 10541 10536 10531 10526 10521 10516 10511 10507 10501 10494 10488 10482
10691 10693 10694 10696 10698 10698 10699 10699 10700 10700 10700 10701 10702 10702 10702 10702 10703 10703 10703 10703 10703 10704 10704 10704 10703 10702 10701 10700 10699 10699 10699 10698 10696 10694 10691 10689 10688 10686 10683 10681 10679 10676 10673 10670 10667 10665 10661 10658 10655 10652 10649 10645 10641 10637 10632 10628 10623 10618 10613 10607 10602 10596 10591 10585 10580 10575 10570 10565 10560 10555 10550 10545 10540 10535 10530 10525 10520 10515 10510 10505 10500 10494 10487 10481 10475
10687 10689 10691 10692 10693 10695 10696 10696 10696 10696 10697 10697 10698 10698 10698 10699 10700 10699 10699 10699 10699 10700 10701 10700 10699 10698 10696 10696 10695 10694 10694 10693 10691 10689 10687 10685 10683 10681 10679 10677 10675 10672 10669 10666 10663 10660 10657 10654 10651 10648 10644 10640 10636 10632 10627 10622 10618 10613 10608 10602 10597 10591 10586 10580 10575 10569 10564 10559 10555 10550 10546 10540 10535 10530 10525 10520 10515 10509 10504 10499 10494 10488 10481 10475 10469
10684 10685 10687 10688 10690 10691 10692 10692 10692 10693 10694 10694 10694 10694 10694 10695 10696 10695 10695 10695 10696 10696 10697 10696 10695 10693 10692 10691 10690 10690 10689 10688 10686 10684 10682 10680 10679 10677 10675 10672 10670 10668 10665 10662 10659 10656 10653 10650 10646 10643 10639 10635 10631 10627 10622 10617 10613 10607 10602 10597 10592 10586 10581 10575 10570 10565 10559 10554 10550 10545 10540 10536 10531 10526 10521 10516 10510 10503 10498 10493 10488 10482 10476 10469 10462
10680 10682 10683 10685 10687 10689 10690 10690 10689 10689 10690 10690 10690 10690 10691 10692 10692 10691 10691 10692 10692 10692 10692 10692 10690 10689 10687 10687 10686 10685 10684 10683 10681 10679 10678 10676 10674 10672 10670 10668 10666 10663 10660 10657 10654 10651 10648 10645 10642 10638 10634 10630 10626 10621 10617 10613 10608 10603 10598 10592 10587 10582 10576 10571 10565 10560 10555 10550 10545 10541 10536 10531 10526 10521 10516 10510 10504 10497 10491 10485 10480 10475 10470 10464 10457
10677 10678 10680 10682 10686 10689 10688 10685 10684 10685 10685 10686 10686 10687 10687 10688 10689 10688 10688 10687 10687 10687 10687 10687 10686 10684 10683 10682 10681 10680 10679 10678 10676 10674 10673 10671 10669 10667 10665 10663 10661 10658 10656 10653 10650 10647 10644 10640 10637 10633 10629 10625 10621 10616 10612 10608 10603 10598 10593 10588 10583 10577 10572 10566 10561 10556 10550 10545 10541 10536 10532 10527 10523 10518 10513 10507 10500 10493 10485 10478 10472 10469 10465 10459 10453
10672 10674 10676 10679 10682 10684 10681 10680 10680 10680 10680 10681 10682 10683 10684 10685 10685 10684 10683 10682 10682 10682 10682 10682 10681 10679 10678 10677 10676 10675 10674 10673 10671 10669 10668 10666 10664 10663 10661 10658 10656 10654 10651 10648 10645 10642 10639 10636 10632 10628 10624 10620 10616 10612 10608 10604 10599 10594 10589 10584 10579 10573 10568 10562 10557 10551 10546 10541 10536 10532 10527 10523 10518 10514 10509 10503 10496 10488 10481 10473 10467 10463 10460 10456 10451
10668 10671 10673 10674 10676 10676 10676 10676 10677 10677 10677 10678 10679 10679 10680 10681 10681 10680 10679 10677 10677 10677 10677 10677 10676 10675 10673 10672 10671 10670 10669 10668 10666 10664 10663 10661 10660 10658 10656 10653 10651 10649 10646 10644 10641 10638 10634 10631 10627 10623 10619 10615 10611 10607 10603 10599 10594 10589 10584 10579 10574 10569 10564 10558 10553 10547 10542 10537 10532 10527 10523 10518 10514 10509 10504 10498 10492 10485 10479 10472 10464 10458 10455 10452 10447
10664 10667 10668 10669 10670 10671 10672 10673 10673 10673 10674 10675 10675 10676 10676 10676 10676 10676 10674 10673 10672 10672 10672 10671 10671 10669 10668 10666 10666 10665 10664 10663 10662 10659 10658 10656 10655 10653 10651 10648 10646 10644 10641 10639 10636 10633 10629 10625 10621 10617 10613 10609 10606 10602 10598 10594 10589 10584 10580 10575 10570 10565 10559 10554 10549 10543 10538 10533 10528 10523 10519 10514 10509 10504 10499 10494 10489 10482 10476 10469 10461 10454 10449 10445 10441
10660 10663 10664 10665 10666 10666 10667 10668 10668 10668 10669 10670 10671 10671 10671 10671 10671 10671 10669 10667 10666 10666 10666 10666 10665 10664 10662 10661 10660 10660 10659 10658 10657 10655 10653 10651 10650 10648 10646 10643 10641 10638 10636 10634 10631 10628 10624 10620 10616 10612 10608 10604 10601 10597 10593 10589 10584 10579 10575 10570 10565 10560 10555 10550 10544 10539 10534 10529 10524 10519 10515 10511 10506 10501 10497 10491 10486 10480 10473 10467 10460 10453 10446 10440 10437
10655 10657 10659 10660 10661 10661 10662 10664 10664 10664 10665 10665 10666 10666 10666 10666 10666 10665 10663 10662 10661 10660 10660 10660 10659 10658 10657 10656 10656 10655 10654 10653 10651 10650 10648 10646 10644 10642 10640 10638 10636 10633 10631 10628 10626 10622 10618 10615 10611 10607 10603 10599 10596 10592 10588 10584 10579 10574 10570 10565 10561 10556 10551 10545 10540 10535 10530 10525 10520 10516 10511 10507 10503 10498 10494 10489 10483 10477 10472 10466 10460 10453 10447 10441 10437
10649 10651 10653 10654 10655 10656 10657 10659 10660 10660 10661 10661 10662 10662 10661 10661 10660 10659 10658 10656 10655 10655 10655 10655 10654 10653 10652 10652 10651 10650 10648 10647 10646 10645 10643 10641 10639 10637 10635 10633 10631 10628 10625 10623 10620 10617 10613 10609 10606 10602 10599 10595 10591 10587 10583 10579 10574 10570 10565 10561 10556 10551 10546 10541 10536 10531 10525 10521 10516 10512 10508 10504 10500 10495 10490 10486 10481 10475 10470 10465 10459 10453 10448 10442 10437
10646 10648 10649 10650 10651 10652 10653 10654 10655 10656 10656 10656 10656 10656 10656 10655 10655 10654 10652 10650 10650 10650 10650 10650 10650 10649 10648 10647 10645 10644 10643 10642 10641 10639 10637 10636 10634 10632 10630 10628 10625 10623 10620 10617 10614 10611 10608 10604 10601 10597 10594 10590 10586 10582 10578 10574 10570 10565 10561 10556 10552 10547 10542 10537 10532 10527 10521 10517 10512 10508 10504 10500 10496 10492 10487 10483 10478 10473 10468 10463 10458 10453 10447 10442 10437
10643 10644 10644 10645 10646 10647 10648 10649 10650 10650 10651 10651 10651 10651 10650 10650 10649 10648 10646 10646 10646 10646 10645 10645 10644 10643 10642 10641 10640 10639 10637 10636 10635 10634 10632 10630 10628 10626 10624 10622 10620 10618 10615 10612 10608 10605 10602 10599 10596 10593 10589 10585 10581 10577 10573 10569 10565 10561 10556 10552 10547 10543 10538 10533 10528 10523 10518 10513 10508 10504 10500 10496 10493 10489 10485 10480 10475 10471 10466 10462 10457 10453 10447 10442 10436
10639 10640 10640 10641 10641 10642 10643 10644 10644 10645 10645 10646 10646 10646 10645 10644 10644 10642 10642 10641 10641 10641 10640 10640 10639 10638 10637 10636 10635 10634 10632 10631 10630 10628 10627 10625 10622 10620 10618 10616 10614 10612 10609 10606 10603 10599 10596 10594 10591 10588 10584 10581 10577 10573 10569 10565 10561 10556 10552 10547 10543 10538 10534 10529 10524 10519 10514 10509 10504 10500 10497 10493 10489 10486 10482 10477 10473 10469 10465 10460 10456 10451 10446 10440 10435
10635 10636 10635 10635 10636 10637 10638 10639 10639 10640 10641 10641 10641 10641 10640 10639 10639 10638 10637 10637 10637 10636 10635 10634 10634 10633 10632 10631 10630 10629 10627 10626 10624 10623 10621 10618 10616 10614 10612 10610 10608 10606 10603 10600 10597 10594 10591 10588 10586 10583 10579 10576 10572 10568 10564 10560 10556 10552 10548 10543 10538 10534 10529 10525 10520 10515 10510 10505 10501 10497 10493 10489 10486 10482 10478 10474 10470 10466 10462 10458 10453 10448 10443 10437 10432
10630 10630 10630 10631 10632 10632 10633 10634 10635 10636 10637 10636 10636 10636 10635 10634 10634 10633 10633 10633 10632 10630 10629 10629 10628 10627 10627 10626 10624 10623 10621 10620 10618 10617 10615 10613 10611 10608 10606 10603 10601 10599 10597 10594 10591 10588 10585 10583 10581 10578 10574 10571 10567 10564 10560 10556 10552 10548 10543 10539 10534 10530 10525 10520 10515 10511 10506 10501 10497 10493 10489 10485 10482 10478 10474 10470 10466 10462 10458 10453 10449 10444 10439 10435 10430
10626 10625 10625 10627 10627 10626 10628 10630 10631 10632 10633 10632 10632 10631 10630 10630 10630 10630 10629 10628 10626 10625 10624 10623 10622 10622 10621 10620 10619 10617 10615 10613 10612 10611 10609 10608 10606 10603 10600 10597 10595 10593 10591 10588 10585 10582 10580 10578 10575 10572 10569 10566 10562 10559 10555 10551 10547 10543 10539 10534 10530 10525 10521 10516 10511 10507 10502 10497 10493 10489 10485 10482 10478 10474 10471 10467 10463 10458 10454 10449 10445 10440 10435 10431 10427
10622 10621 10621 10622 10621 10620 10623 10626 10627 10629 10629 10629 10628 10627 10626 10626 10626 10625 10624 10623 10621 10620 10619 10618 10617 10616 10615 10614 10613 10611 10609 10608 10606 10605 10604 10602 10600 10598 10595 10592 10589 10587 10585 10582 10579 10577 10575 10573 10570 10567 10564 10560 10557 10554 10550 10547 10543 10538 10534 10530 10525 10521 10516 10511 10507 10502 10498 10493 10489 10485 10481 10477 10474 10470 10467 10463 10459 10455 10450 10446 10441 10437 10432 10428 10424
10615 10614 10616 10616 10616 10616 10619 10621 10624 10626 10625 10624 10624 10623 10622 10623 10622 10621 10619 10618 10617 10616 10614 10613 10612 10610 10609 10608 10607 10605 10603 10602 10600 10599 10598 10596 10594 10592 10590 10587 10584 10582 10579 10576 10574 10572 10570 10568 10565 10562 10559 10555 10552 10548 10545 10542 10538 10534 10529 10525 10520 10516 10511 10507 10502 10498 10493 10489 10485 10481 10477 10473 10470 10466 10463 10459 10456 10452 10447 10443 10438 10434 10430 10425 10421
10609 10610 10612 10613 10613 10614 10616 10618 10620 10621 10620 10619 10619 10618 10618 10618 10618 10617 10615 10614 10613 10612 10610 10608 10607 10605 10604 10603 10601 10600 10598 10596 10595 10594 10592 10590 10588 10586 10584 10582 10579 10577 10574 10571 10568 10567 10565 10562 10559 10557 10554 10551 10547 10543 10539 10536 10533 10528 10524 10520 10516 10511 10507 10502 10498 10493 10489 10485 10480 10477 10473 10469 10466 10462 10459 10455 10452 10448 10444 10440 10436 10431 10426 10422 10418
10607 10608 10609 10610 10610 10611 10613 10614 10616 10616 10615 10614 10613 10612 10613 10613 10613 10612 10611 10610 10609 10607 10605 10603 10601 10599 10599 10597 10596 10595 10594 10591 10590 10589 10587 10585 10583 10581 10578 10576 10574 10571 10568 10565 10563 10561 10559 10557 10554 10551 10548 10545 10542 10538 10534 10531 10527 10523 10519 10515 10511 10506 10502 10498 10493 10488 10484 10480 10476 10473 10469 10465 10462 10458 10454 10451 10447 10444 10440 10436 10432 10428 10424 10419 10415
10604 10605 10606 10606 10607 10609 10610 10611 10612 10612 10611 10609 10608 10607 10607 10607 10607 10606 10605 10605 10605 10603 10599 10598 10596 10593 10592 10591 10591 10590 10589 10587 10585 10583 10582 10580 10578 10575 10573 10571 10568 10565 10562 10560 10558 10556 10553 10551 10548 10546 10543 10540 10536 10533 10529 10525 10521 10517 10514 10510 10506 10501 10497 10493 10488 10484 10479 10476 10472 10468 10465 10462 10458 10454 10450 10447 10443 10439 10436 10432 10429 10425 10421 10417 10412
10599 10601 10602 10603 10604 10606 10606 10607 10607 10607 10606 10605 10604 10602 10601 10601 10600 10600 10599 10599 10600 10598 10595 10594 10593 10590 10587 10586 10586 10585 10584 10582 10579 10578 10576 10575 10573 10570 10567 10565 10563 10560 10558 10556 10553 10550 10548 10545 10543 10540 10537 10534 10531 10527 10523 10519 10515 10511 10508 10504 10500 10496 10492 10488 10483 10479 10475 10471 10467 10464 10461 10457 10454 10451 10447 10443 10439 10435 10431 10428 10424 10421 10416 10413 10409
10595 10596 10597 10598 10600 10601 10602 10602 10602 10602 10601 10600 10599 10598 10596 10595 10593 10593 10594 10594 10594 10593 10590 10590 10590 10588 10585 10583 10582 10581 10579 10577 10574 10572 10571 10570 10567 10565 10562 10560 10558 10555 10553 10551 10548 10545 10542 10539 10536 10533 10531 10528 10525 10522 10518 10514 10509 10505 10502 10498 10494 10490 10486 10482 10478 10474 10470 10466 10463 10460 10457 10453 10450 10447 10443 10439 10436 10432 10428 10424 10420 10416 10413 10409 10405
10591 10592 10592 10593 10594 10596 10597 10597 10597 10597 10596 10595 10594 10592 10591 10590 10589 10588 10589 10588 10588 10587 10586 10585 10585 10584 10582 10580 10578 10577 10575 10572 10569 10567 10565 10563 10561 10559 10557 10555 10553 10551 10548 10545 10542 10539 10537 10534 10531 10527 10524 10521 10518 10515 10512 10508 10503 10499 10496 10492 10488 10484 10480 10476 10473 10469 10465 10462 10458 10455 10452 10449 10446 10443 10439 10436 10432 10428 10424 10421 10417 10413 10409 10405 10401
10586 10587 10587 10588 10589 10590 10591 10592 10592 10592 10591 10590 10588 10586 10585 10585 10585 10584 10583 10583 10582 10581 10580 10579 10579 10579 10578 10576 10574 10572 10569 10566 10564 10562 10559 10557 10555 10554 10552 10550 10548 10546 10543 10539 10537 10534 10532 10528 10525 10522 10518 10515 10512 10509 10505 10501 10497 10493 10489 10485 10482 10478 10474 10470 10467 10463 10460 10456 10453 10450 10447 10444 10441 10438 10435 10431 10427 10424 10420 10417 10413 10409 10405 10401 10397
10579 10581 10582 10582 10583 10583 10584 10585 10585 10585 10584 10583 10582 10581 10580 10580 10580 10579 10578 10578 10576 10575 10574 10573 10573 10573 10572 10571 10568 10565 10563 10560 10558 10556 10553 10552 10550 10548 10547 10544 10542 10540 10537 10534 10531 10529 10526 10523 10519 10515 10512 10509 10506 10502 10498 10495 10491 10487 10483 10479 10476 10472 10468 10464 10461 10457 10454 10451 10448 10445 10442 10439 10436 10433 10429 10426 10422 10419 10415 10412 10408 10404 10400 10396 10393
10573 10574 10575 10576 10577 10577 10577 10578 10577 10577 10576 10576 10575 10574 10574 10574 10574 10573 10572 10571 10570 10568 10567 10567 10567 10566 10566 10564 10562 10559 10557 10555 10552 10549 10547 10546 10544 10542 10540 10538 10536 10534 10531 10527 10525 10523 10521 10517 10513 10509 10506 10502 10499 10496 10492 10488 10484 10480 10476 10473 10469 10465 10462 10458 10455 10451 10448 10445 10443 10440 10437 10433 10430 10427 10424 10420 10417 10413 10410 10406 10403 10399 10395 10391 10388
10566 10568 10569 10569 10570 10570 10570 10570 10570 10569 10568 10568 10567 10567 10566 10566 10566 10566 10565 10563 10562 10561 10560 10560 10559 10558 10558 10557 10555 10553 10551 10549 10546 10543 10541 10540 10538 10536 10533 10531 10529 10527 10524 10521 10519 10517 10515 10512 10507 10503 10500 10496 10493 10489 10485 10481 10477 10473 10470 10466 10463 10459 10455 10452 10449 10446 10443 10440 10437 10434 10431 10428 10424 10421 10418 10414 10411 10408 10404 10401 10397 10393 10389 10386 10382
10559 10560 10561 10562 10563 10563 10564 10564 10563 10562 10561 10560 10559 10559 10559 10559 10559 10558 10557 10556 10554 10554 10553 10552 10551 10550 10550 10549 10548 10547 10546 10543 10540 10537 10535 10534 10532 10530 10527 10524 10522 10520 10517 10515 10513 10511 10508 10505 10501 10497 10493 10489 10486 10482 10478 10474 10470 10466 10463 10460 10456 10452 10449 10446 10442 10439 10437 10434 10431 10428 10425 10422 10419 10415 10412 10409 10405 10402 10398 10395 10391 10387 10383 10380 10376
10552 10553 10553 10554 10555 10556 10556 10556 10556 10555 10554 10552 10552 10552 10552 10553 10552 10550 10549 10548 10547 10546 10546 10545 10544 10543 10542 10541 10540 10539 10538 10536 10533 10530 10528 10527 10525 10522 10519 10517 10515 10512 10510 10508 10506 10504 10501 10499 10495 10491 10486 10482 10478 10475 10471 10468 10463 10460 10456 10453 10449 10446 10443 10439 10436 10433 10430 10428 10425 10422 10419 10416 10413 10409 10406 10403 10399 10395 10392 10388 10385 10381 10377 10373 10370
10545 10545 10545 10546 10547 10548 10548 10548 10548 10547 10546 10545 10544 10544 10545 10545 10545 10544 10543 10541 10540 10539 10538 10538 10538 10536 10535 10534 10532 10531 10530 10528 10525 10522 10521 10519 10517 10514 10511 10509 10507 10505 10502 10500 10498 10495 10493 10491 10488 10484 10480 10476 10471 10468 10464 10460 10456 10453 10450 10446 10443 10439 10436 10433 10430 10427 10424 10421 10418 10415 10412 10409 10406 10403 10400 10397 10393 10389 10386 10382 10379 10375 10371 10367 10364
10537 10538 10538 10538 10539 10539 10540 10540 10540 10539 10539 10538 10537 10537 10537 10538 10538 10537 10536 10535 10533 10531 10530 10530 10530 10529 10528 10526 10525 10523 10522 10520 10517 10515 10513 10511 10508 10506 10503 10501 10499 10497 10495 10492 10490 10487 10485 10483 10480 10476 10473 10469 10464 10461 10457 10453 10450 10446 10443 10439 10436 10433 10430 10427 10423 10420 10417 10414 10411 10408 10406 10402 10399 10396 10393 10390 10387 10383 10380 10376 10373 10369 10365 10361 10358
10530 10530 10531 10531 10531 10531 10532 10532 10532 10532 10532 10531 10530 10530 10530 10530 10530 10529 10529 10527 10526 10523 10522 10521 10521 10520 10520 10519 10517 10516 10515 10512 10509 10507 10505 10503 10500 10497 10495 10493 10491 10489 10486 10484 10482 10480 10477 10475 10472 10468 10465 10461 10457 10454 10450 10446 10443 10439 10436 10432 10429 10426 10423 10420 10417 10414 10410 10407 10404 10402 10399 10396 10393 10390 10387 10383 10380 10377 10373 10370 10366 10363 10359 10356 10352
10523 10523 10524 10524 10524 10524 10524 10524 10524 10524 10524 10524 10524 10523 10522 10522 10522 10521 10520 10520 10518 10515 10513 10512 10512 10511 10511 10509 10509 10508 10507 10504 10501 10499 10497 10494 10492 10489 10487 10485 10482 10480 10477 10475 10473 10471 10469 10466 10463 10460 10457 10454 10450 10446 10443 10439 10436 10432 10429 10425 10422 10419 10416 10413 10410 10407 10404 10401 10398 10395 10392 10389 10386 10383 10380 10377 10374 10371 10367 10363 10360 10356 10353 10349 10346
10516 10516 10515 10516 10516 10516 10516 10516 10516 10516 10516 10516 10515 10515 10514 10514 10513 10512 10512 10511 10510 10507 10504 10502 10502 10503 10502 10501 10499 10499 10497 10496 10493 10490 10488 10486 10483 10481 10479 10476 10473 10470 10468 10466 10465 10463 10460 10458 10455 10452 10449 10445 10442 10438 10435 10431 10428 10425 10422 10418 10415 10412 10409 10406 10403 10400 10397 10394 10392 10388 10385 10382 10379 10376 10373 10369 10366 10364 10360 10357 10353 10350 10346 10342 10339
10508 10507 10507 10507 10507 10507 10507 10507 10507 10507 10507 10507 10506 10506 10506 10505 10504 10503 10503 10502 10501 10499 10497 10494 10493 10493 10493 10492 10491 10489 10488 10487 10485 10482 10479 10476 10474 10473 10471 10468 10465 10461 10459 10458 10456 10454 10452 10449 10446 10443 10440 10437 10433 10430 10427 10423 10420 10417 10414 10411 10408 10405 10402 10400 10397 10394 10391 10388 10385 10381 10378 10375 10371 10368 10365 10362 10359 10356 10353 10349 10346 10342 10339 10335 10331
10499 10499 10499 10499 10499 10499 10498 10498 10498 10498 10498 10498 10497 10497 10497 10496 10495 10494 10494 10493 10492 10491 10488 10486 10484 10484 10484 10483 10482 10480 10478 10477 10476 10474 10471 10467 10464 10463 10462 10459 10456 10453 10451 10449 10447 10446 10443 10440 10437 10433 10430 10427 10424 10421 10418 10415 10412 10410 10407 10404 10401 10398 10395 10393 10390 10387 10384 10381 10378 10374 10371 10368 10364 10361 10357 10354 10351 10348 10345 10341 10338 10334 10331 10327 10323
10490 10490 10490 10490 10490 10489 10489 10489 10489 10490 10489 10489 10489 10488 10488 10487 10486 10485 10485 10484 10483 10482 10480 10477 10475 10474 10474 10473 10472 10470 10469 10467 10466 10465 10463 10459 10455 10453 10452 10450 10447 10445 10442 10440 10438 10436 10434 10430 10427 10423 10419 10417 10414 10412 10409 10406 10404 10401 10399 10397 10394 10391 10388 10385 10382 10379 10377 10373 10370 10366 10363 10360 10357 10353 10349 10346 10343 10340 10336 10332 10329 10325 10322 10318 10315
10481 10481 10481 10480 10480 10480 10480 10480 10480 10480 10480 10480 10480 10480 10479 10477 10476 10475 10474 10473 10472 10472 10472 10470 10467 10465 10463 10462 10461 10460 10458 10457 10456 10455 10453 10450 10447 10444 10442 10440 10438 10436 10433 10431 10429 10426 10424 10421 10418 10414 10410 10407 10405 10403 10400 10397 10395 10393 10391 10388 10386 10383 10380 10377 10374 10371 10368 10366 10362 10358 10355 10352 10348 10344 10340 10336 10333 10330 10327 10324 10320 10316 10313 10309 10306
10471 10471 10471 10471 10471 10471 10471 10471 10471 10470 10470 10470 10471 10470 10469 10468 10467 10466 10464 10463 10462 10462 10461 10461 10459 10457 10454 10452 10451 10449 10447 10446 10445 10444 10443 10441 10438 10436 10434 10432 10429 10427 10424 10422 10420 10417 10415 10412 10410 10407 10403 10400 10397 10394 10392 10389 10386 10384 10382 10380 10377 10374 10371 10368 10365 10363 10360 10357 10354 10350 10347 10343 10340 10336 10333 10328 10325 10322 10319 10316 10312 10308 10304 10301 10297
10462 10462 10462 10462 10462 10462 10462 10462 10462 10461 10461 10460 10460 10460 10459 10458 10457 10456 10454 10453 10452 10451 10451 10449 10448 10446 10444 10442 10440 10438 10437 10435 10434 10433 10432 10430 10428 10426 10425 10423 10421 10419 10417 10414 10411 10408 10406 10403 10401 10398 10395 10392 10389 10386 10383 10381 10378 10376 10374 10371 10368 10366 10362 10359 10357 10354 10352 10349 10345 10342 10338 10335 10332 10328 10325 10321 10318 10314 10311 10307 10303 10299 10296 10292 10288
10453 10453 10452 10452 10452 10453 10453 10453 10453 10452 10451 10450 10450 10449 10448 10447 10445 10444 10443 10442 10442 10441 10440 10439 10436 10434 10432 10431 10429 10428 10426 10424 10423 10422 10420 10419 10417 10416 10415 10413 10411 10409 10407 10405 10402 10399 10397 10394 10392 10390 10387 10384 10381 10378 10375 10372 10370 10368 10365 10363 10360 10357 10354 10351 10348 10345 10343 10340 10337 10334 10330 10327 10323 10320 10316 10313 10310 10306 10303 10298 10294 10290 10287 10283 10279
10444 10444 10443 10443 10443 10444 10444 10444 10444 10443 10441 10440 10439 10438 10437 10435 10433 10432 10432 10431 10430 10430 10428 10427 10424 10422 10421 10419 10418 10417 10415 10413 10411 10410 10408 10407 10406 10405 10404 10403 10401 10398 10396 10394 10392 10389 10387 10385 10383 10380 10378 10375 10372 10369 10367 10364 10362 10360 10357 10355 10352 10349 10345 10342 10340 10337 10334 10331 10328 10325 10322 10319 10315 10311 10307 10303 10300 10297 10293 10289 10284 10280 10277 10273 10269
10435 10434 10434 10434 10435 10434 10434 10434 10434 10433 10431 10429 10429 10428 10426 10424 10422 10421 10421 10420 10419 10417 10415 10414 10412 10411 10410 10408 10407 10406 10404 10402 10400 10398 10397 10396 10395 10394 10393 10391 10389 10387 10385 10383 10381 10379 10377 10375 10373 10371 10368 10366 10363 10360 10358 10356 10353 10351 10349 10346 10343 10340 10336 10333 10331 10328 10325 10322 10319 10316 10312 10309 10306 10302 10298 10294 10290 10286 10282 10279 10275 10270 10267 10263 10260
10425 10425 10425 10425 10425 10425 10424 10424 10424 10423 10421 10419 10417 10416 10415 10413 10412 10410 10408 10407 10406 10405 10404 10402 10401 10400 10398 10397 10396 10394 10392 10391 10389 10387 10386 10384 10383 10382 10381 10379 10377 10376 10374 10372 10371 10369 10367 10364 10362 10361 10358 10356 10354 10351 10349 10347 10344 10342 10339 10337 10334 10330 10327 10325 10322 10319 10316 10313 10309 10306 10302 10299 10295 10291 10288 10284 10280 10276 10272 10268 10265 10261 10257 10253 10249
10416 10415 10414 10414 10414 10414 10413 10412 10411 10411 10409 10407 10405 10404 10404 10402 10400 10398 10396 10395 10394 10393 10392 10391 10390 10388 10386 10385 10384 10382 10381 10379 10378 10376 10375 10374 10373 10371 10370 10368 10366 10365 10364 10362 10360 10358 10356 10354 10353 10351 10349 10347 10345 10343 10340 10338 10335 10333 10330 10327 10325 10322 10319 10316 10313 10309 10306 10303 10299 10295 10292 10289 10285 10281 10277 10273 10269 10265 10261 10258 10254 10250 10246 10243 10239
10405 10405 10404 10403 10402 10402 10401 10400 10399 10398 10397 10395 10394 10393 10391 10390 10389 10387 10386 10385 10384 10382 10381 10379 10378 10376 10375 10374 10373 10372 10370 10369 10368 10367 10366 10365 10363 10362 10360 10358 10357 10355 10354 10352 10351 10349 10347 10346 10344 10342 10340 10338 10336 10334 10331 10329 10326 10324 10321 10318 10315 10312 10309 10306 10303 10299 10296 10293 10289 10285 10282 10279 10275 10271 10267 10262 10258 10254 10250 10246 10242 10238 10235 10231 10228
10394 10393 10392 10391 10390 10389 10389 10387 10386 10385 10384 10383 10382 10381 10379 10378 10377 10376 10375 10374 10373 10372 10370 10369 10367 10366 10365 10364 10363 10362 10361 10360 10359 10358 10357 10356 10355 10354 10352 10350 10348 10347 10345 10344 10342 10341 10339 10338 10336 10333 10331 10329 10327 10325 10322 10320 10317 10315 10312 10309 10306 10302 10299 10296 10293 10289 10286 10282 10279 10275 10272 10268 10264 10260 10256 10251 10247 10243 10239 10234 10231 10227 10223 10220 10217